Flag for Canada Weather past 2 weeks in Whitehorse, Yukon, Canada

41 °F

Mostly cloudy.

Feels Like: 32 °F
Forecast: 43 / 51 °F
Wind: 21 mph from South

Location: Whitehorse

Current Time: Oct 8, 2015 at 11:14:44 PM

Latest Report: Oct 8, 2015 at 10:00 PM

Visibility: 15 mi

Pressure: 29.58 "Hg (27.34 "Hg at 640m altitude)

Humidity: 93%

Dew point: 39 °F

Location of WhitehorseLocation

Historic Weather in Whitehorse — Graph


Whitehorse temperature yesterday

Maximum temperature yesterday: 43 °F (at 3:00 PM)
Minimum temperature yesterday: 27 °F (at 12:00 AM)
Average temperature yesterday: 35 °F

Past Weeks' High & Low Weather Summary

High61 °F (Sep 29, 2:00 PM)100% (Sep 26, 11:00 PM)30.71 "Hg (Sep 26, 11:00 PM)
Low18 °F (Oct 2, 5:00 AM)37% (Sep 25, 6:00 PM)29.28 "Hg (Sep 29, 10:00 PM)
Average38 °F71%29.99 "Hg
* Reported Sep 23 10:00 PM — Oct 8 10:00 PM, Whitehorse, Weather by CustomWeather, © 2015

Note: Actual official high and low records may vary slightly from our data, if they occured in-between our weather recording intervals... More about our weather records


Whitehorse weather history for previous 24 hours

Time TempWeatherWind HumidityBarometerVisibility
10:00 PM
Thu, Oct 8
41 °FMostly cloudy.21 mph93%29.58 "Hg15 mi
9:00 PM41 °FMostly cloudy.14 mph93%29.58 "Hg15 mi
8:00 PM41 °FLight rain. Mostly cloudy.16 mph93%29.59 "Hg12 mi
7:00 PM41 °FLight rain. Cloudy.14 mph93%29.60 "Hg12 mi
6:00 PM41 °FSprinkles. Cloudy.14 mph93%29.62 "Hg12 mi
5:00 PM41 °FSprinkles. More clouds than sun.14 mph93%29.63 "Hg12 mi
4:00 PM41 °FScattered showers. Mostly cloudy.15 mph93%29.65 "Hg15 mi
3:00 PM39 °FSprinkles. Scattered clouds.14 mph93%29.67 "Hg20 mi
2:00 PM39 °FSprinkles. Mostly cloudy.14 mph93%29.70 "Hg15 mi
1:00 PM39 °FMostly cloudy.15 mph87%29.72 "Hg30 mi
12:00 PM37 °FMostly cloudy.13 mph93%29.75 "Hg30 mi
11:00 AM37 °FPartly sunny.14 mph87%29.78 "Hg30 mi
10:00 AM36 °FSprinkles. Mostly cloudy.14 mph93%29.78 "Hg30 mi
9:00 AM36 °FSprinkles. Mostly cloudy.13 mph87%29.80 "Hg12 mi
8:00 AM36 °FMostly cloudy.6 mph81%29.80 "Hg15 mi
7:00 AM32 °FMostly cloudy.2 mph87%29.82 "Hg15 mi
6:00 AM34 °FMostly cloudy.3 mph81%29.84 "Hg15 mi
5:00 AM34 °FPassing clouds.3 mph81%29.85 "Hg15 mi
4:00 AM34 °FPassing clouds.5 mph81%29.86 "Hg15 mi
3:00 AM34 °FPassing clouds.7 mph81%29.88 "Hg15 mi
2:00 AM34 °FPassing clouds.9 mph81%29.89 "Hg20 mi
1:00 AM34 °FPassing clouds.7 mph75%29.90 "Hg15 mi
12:00 AM34 °FPassing clouds.6 mph81%29.92 "Hg15 mi
11:00 PM
Wed, Oct 7
32 °FPassing clouds.2 mph80%29.92 "Hg15 mi
Weather by CustomWeather, © 2015

See weather overviewHow to use our weather pages